THORAD AGENA D DEB, 6216

Orbit data source: Space-Track

THORAD AGENA D DEB, 6216 is space debris in SSO originally from a launch on Wed, 08 Apr 1970 UTC launched from the Air Force Western Test Range (AFWTR). Debris objects in space refer to the collection of defunct objects orbiting the Earth. Examples of debris include non-operational satellites, rocket bodies, and fragments generated from explosions, collisions, or faulty payload assembly.

Loading next visibility...
Identifier
6216, 1970-025NE
Orbit
SSO
Country
Flag of USUS
Related business
Manufacturer
Unknown
Mission
Spacecraft
Bus & Motor
Unknown
Mass
Unknown
Launch date (UTC)
1970-04-08 (56 years ago)
Launch vehicle
Unknown
Launch site
Air Force Western Test Range (AFWTR)
Object type
Payload
Rocket body
Debris
Shape & HBR
Unknown shape, 0.1 m
Radar Cross Section
Small (<0.1 m²)

Expand to show TLE details & history
Last TLE update: 6 hours ago

TLE from 6 hours ago
0 THORAD AGENA D DEB
1 06216U 70025NE  25299.93871290  .00001627  00000-0  40985-3 0  9990
2 06216  99.0178 184.3310 0219078  41.7319 320.0348 14.39246348842506
Epoch: 2025-10-26T22:31Z
TLE epoch observation values (Epoch: 2025-10-26T22:31:44.794Z)
Latitude
-0.00001°
Longitude
170.84664°
Altitude
645.474 km
Speed
7.597 km/s
True Right ascension
12h 17m 19s
True Declination
0° 00' 00"
Sunlit
Object was in daylight at epoch
Visualization orbit readout
Latitude
Unknown
Longitude
Unknown
Altitude
Unknown
Speed
Unknown
Apparent Right ascension
Unknown
Apparent Declination
Unknown
Sunlit
N/A
Visualization observer readout
Local Sidereal Time
23:43:59
Azimuth
Unknown
Elevation
Unknown
Doppler factor
Unknown
Orbital elements
Apogee altitude
914.476 km
Perigee altitude
601.796 km
Semi-major axis
7,136.273 km
Eccentricity
0.02191
Inclination
99.0178°
RAAN
184.331°
Arg. of periapsis
41.7319°
True anomaly
318.38797°
Mean anomaly
320.0348°
Eccentric anomaly
319.21486°
Mean motion
3.60028 °/min
Orbital period
99.99 mins
BSTAR
0.00040985
Loading maneuver chart data...
Computing Atmospheric mass density...

Documentation

Showing up to 5 results
|